CSHEY LPDA-LPDA

Flight info

Callsign CSHEY
Flight time 0h 20m
Altitude 2500
Route LPDA DCT BALTR STAY1/0030 DCT LPDA
Aircraft AS50/L-SDFGY/C

Departure

Time 2026-05-07 17:34
Airport Massarelos Helipad (LPDA)

Arrival

Time 2026-05-07 17:54
Airport Massarelos Helipad (LPDA)
Time Latitude Longitude Altitude Speed Heading
2026-05-07 17:17 41.14658 -8.63271 25 ft 0 kts
2026-05-07 17:24 41.14658 -8.63272 25 ft 0 kts 360°
2026-05-07 17:32 41.14658 -8.63271 25 ft 0 kts 346°
2026-05-07 17:33 41.14658 -8.63282 30 ft 6 kts 317°
2026-05-07 17:33 41.14621 -8.63284 227 ft 6 kts 283°
2026-05-07 17:33 41.14573 -8.63361 417 ft 13 kts 241°
2026-05-07 17:33 41.14463 -8.63293 587 ft 29 kts 144°
2026-05-07 17:34 41.14389 -8.63011 765 ft 44 kts 115°
2026-05-07 17:34 41.14328 -8.62512 914 ft 65 kts 102°
2026-05-07 17:34 41.14356 -8.61789 1078 ft 95 kts 96°
2026-05-07 17:34 41.14331 -8.60866 1327 ft 100 kts 95°
2026-05-07 17:35 41.14530 -8.59975 1543 ft 104 kts 70°
2026-05-07 17:35 41.14860 -8.59126 1835 ft 100 kts 66°
2026-05-07 17:35 41.15172 -8.58324 2152 ft 96 kts 71°
2026-05-07 17:35 41.15507 -8.57510 2304 ft 104 kts 70°
2026-05-07 17:36 41.15755 -8.56580 2340 ft 108 kts 79°
2026-05-07 17:36 41.15956 -8.55609 2374 ft 109 kts 79°
2026-05-07 17:36 41.16148 -8.54648 2443 ft 107 kts 74°
2026-05-07 17:36 41.16500 -8.53744 2444 ft 109 kts 62°
2026-05-07 17:37 41.16904 -8.52887 2426 ft 111 kts 65°
2026-05-07 17:37 41.17246 -8.51966 2416 ft 108 kts 71°
2026-05-07 17:37 41.17440 -8.50996 2399 ft 107 kts 84°
2026-05-07 17:37 41.17552 -8.50007 2379 ft 108 kts 86°
2026-05-07 17:38 41.17650 -8.48995 2354 ft 107 kts 86°
2026-05-07 17:38 41.17764 -8.48050 2414 ft 103 kts 84°
2026-05-07 17:38 41.17872 -8.47090 2420 ft 105 kts 85°
2026-05-07 17:38 41.17960 -8.46129 2428 ft 105 kts 88°
2026-05-07 17:39 41.18012 -8.45180 2278 ft 100 kts 94°
2026-05-07 17:39 41.18027 -8.44326 2137 ft 82 kts 95°
2026-05-07 17:39 41.18088 -8.43628 2000 ft 72 kts 85°
2026-05-07 17:39 41.18201 -8.43004 1855 ft 66 kts 87°
2026-05-07 17:40 41.18291 -8.42460 1832 ft 56 kts 82°
2026-05-07 17:40 41.18402 -8.41890 1729 ft 69 kts 85°
2026-05-07 17:40 41.18505 -8.41300 1747 ft 56 kts 87°
2026-05-07 17:40 41.18586 -8.40779 1774 ft 66 kts 85°
2026-05-07 17:41 41.18657 -8.40071 1762 ft 82 kts 91°
2026-05-07 17:41 41.18677 -8.39255 1726 ft 91 kts 92°
2026-05-07 17:41 41.18838 -8.38450 1796 ft 85 kts 58°
2026-05-07 17:41 41.19255 -8.38288 1867 ft 57 kts 311°
2026-05-07 17:42 41.19297 -8.38473 1863 ft 47 kts 258°
2026-05-07 17:42 41.19162 -8.38702 1801 ft 47 kts 220°
2026-05-07 17:42 41.18911 -8.38884 1770 ft 35 kts 201°
2026-05-07 17:43 41.18721 -8.38945 1778 ft 22 kts 219°
2026-05-07 17:43 41.18584 -8.39090 1765 ft 27 kts 241°
2026-05-07 17:43 41.18412 -8.39220 1763 ft 30 kts 229°
2026-05-07 17:43 41.18195 -8.39344 1745 ft 35 kts 230°
2026-05-07 17:44 41.17974 -8.39478 1719 ft 31 kts 239°
2026-05-07 17:44 41.17838 -8.39618 1751 ft 16 kts 253°
2026-05-07 17:44 41.17959 -8.39718 1733 ft 48 kts 340°
2026-05-07 17:44 41.18357 -8.39840 1788 ft 62 kts
2026-05-07 17:45 41.18569 -8.39734 1748 ft 19 kts 234°
2026-05-07 17:45 41.18542 -8.39235 1627 ft 86 kts 127°
2026-05-07 17:45 41.18108 -8.38932 1860 ft 74 kts 189°
2026-05-07 17:45 41.17622 -8.39200 1859 ft 75 kts 233°
2026-05-07 17:46 41.17357 -8.39609 1847 ft 42 kts 274°
2026-05-07 17:46 41.17268 -8.39885 1820 ft 28 kts 291°
2026-05-07 17:46 41.17312 -8.40086 1799 ft 31 kts 347°
2026-05-07 17:46 41.17584 -8.40207 1842 ft 51 kts 359°
2026-05-07 17:47 41.17955 -8.40059 1868 ft 66 kts 57°
2026-05-07 17:47 41.18195 -8.39529 1756 ft 65 kts 52°
2026-05-07 17:47 41.18450 -8.39482 1736 ft 32 kts 270°
2026-05-07 17:47 41.18305 -8.39666 1762 ft 30 kts 209°
2026-05-07 17:48 41.18088 -8.39808 1753 ft 36 kts 203°
2026-05-07 17:48 41.17862 -8.39990 1792 ft 40 kts 243°
2026-05-07 17:48 41.17871 -8.40462 1846 ft 69 kts 277°
2026-05-07 17:48 41.18001 -8.41238 1897 ft 96 kts 279°
2026-05-07 17:49 41.18018 -8.42201 1887 ft 110 kts 270°
2026-05-07 17:49 41.17918 -8.43226 1883 ft 115 kts 262°
2026-05-07 17:49 41.17743 -8.44262 1918 ft 115 kts 256°
2026-05-07 17:49 41.17517 -8.45298 1918 ft 116 kts 258°
2026-05-07 17:50 41.17400 -8.46360 1928 ft 116 kts 265°
2026-05-07 17:50 41.17297 -8.47450 1876 ft 119 kts 262°
2026-05-07 17:50 41.17131 -8.48593 1676 ft 128 kts 263°
2026-05-07 17:50 41.16965 -8.49723 1601 ft 122 kts 260°
2026-05-07 17:51 41.16737 -8.50808 1548 ft 121 kts 254°
2026-05-07 17:51 41.16416 -8.51819 1554 ft 116 kts 246°
2026-05-07 17:51 41.16031 -8.52727 1634 ft 111 kts 240°
2026-05-07 17:51 41.15593 -8.53611 1601 ft 113 kts 239°
2026-05-07 17:52 41.15205 -8.54498 1594 ft 110 kts 245°
2026-05-07 17:52 41.14843 -8.55430 1579 ft 117 kts 244°
2026-05-07 17:52 41.14518 -8.56416 1618 ft 109 kts 253°
2026-05-07 17:52 41.14307 -8.57344 1578 ft 103 kts 261°
2026-05-07 17:53 41.14201 -8.58243 1515 ft 91 kts 268°
2026-05-07 17:53 41.14129 -8.59032 1427 ft 85 kts 267°
2026-05-07 17:53 41.14037 -8.59786 1359 ft 78 kts 265°
2026-05-07 17:53 41.13949 -8.60483 1306 ft 71 kts 266°
2026-05-07 17:54 41.13900 -8.61091 1195 ft 59 kts 280°
2026-05-07 17:54 41.13936 -8.61558 1040 ft 47 kts 294°
2026-05-07 17:54 41.13996 -8.61919 894 ft 36 kts 291°
2026-05-07 17:54 41.14084 -8.62209 791 ft 27 kts 300°
2026-05-07 17:55 41.14164 -8.62415 648 ft 31 kts 309°
2026-05-07 17:55 41.14245 -8.62670 548 ft 27 kts 297°
2026-05-07 17:55 41.14280 -8.62859 475 ft 18 kts 302°
2026-05-07 17:55 41.14331 -8.63036 363 ft 26 kts 328°
2026-05-07 17:56 41.14462 -8.63191 219 ft 20 kts 354°
2026-05-07 17:56 41.14554 -8.63263 108 ft 13 kts
2026-05-07 17:56 41.14603 -8.63297 80 ft 3 kts 358°
2026-05-07 17:56 41.14633 -8.63368 128 ft 9 kts 57°
2026-05-07 17:57 41.14666 -8.63355 138 ft 10 kts 100°
2026-05-07 17:57 41.14738 -8.63343 189 ft 8 kts 56°
2026-05-07 17:57 41.14742 -8.63237 211 ft 15 kts 153°
2026-05-07 17:57 41.14675 -8.63193 74 ft 17 kts 139°
2026-05-07 17:58 41.14676 -8.63189 164 ft 13 kts 305°
2026-05-07 17:58 41.14658 -8.63253 11 ft 15 kts 120°